Location: Champs
(48.8539°N, 2.6040°E)
Time: 05:25:20
(UTC+00:00)

Cosmos 1953 - Pass Details

Date: 05 June 2022
Orbit: 533 x 555 km, 82.5° (Epoch: 03 July)

Event Time Altitude Azimuth Distance (km) Brightness Sun altitude
Rises 22:37:16 0° 354° (N) 2,715 7.5 -16.8°
Reaches altitude 10° 22:39:29 10° 360° (N) 1,814 6.1 -16.9°
Maximum altitude 22:43:23 51° 77° (ENE) 686 2.7 -17.1°
Enters shadow 22:44:47 33° 133° (SE) 914 3.0 -17.1°
